EXS34R EGPH-ENBR

Flight info

Callsign EXS34R
Flight time 1h 11m
Altitude 35000
Route GRICE P600 ASNUD DCT BEREP DCT MODNI
Aircraft B738/M-SDE2E3FGHIRWXY/LB1

Departure

Time 2026-05-06 18:40
Airport Edinburgh Airport (EGPH)

Arrival

Time 2026-05-06 19:51
Airport Bergen Airport, Flesland (ENBR)
Time Latitude Longitude Altitude Speed Heading
2026-05-06 18:21 55.94572 -3.36624 115 ft 0 kts 89°
2026-05-06 18:26 55.94572 -3.36625 115 ft 1 kts 89°
2026-05-06 18:26 55.94573 -3.36667 115 ft 4 kts 99°
2026-05-06 18:26 55.94578 -3.36713 113 ft 4 kts 99°
2026-05-06 18:26 55.94577 -3.36747 114 ft 1 kts 44°
2026-05-06 18:32 55.94578 -3.36745 113 ft 1 kts 43°
2026-05-06 18:32 55.94598 -3.36734 112 ft 6 kts
2026-05-06 18:32 55.94653 -3.36735 115 ft 9 kts 359°
2026-05-06 18:32 55.94714 -3.36736 115 ft 9 kts 359°
2026-05-06 18:33 55.94776 -3.36767 114 ft 10 kts 342°
2026-05-06 18:33 55.94853 -3.36777 115 ft 13 kts 357°
2026-05-06 18:33 55.94927 -3.36851 115 ft 12 kts 296°
2026-05-06 18:33 55.94893 -3.36994 113 ft 14 kts 238°
2026-05-06 18:34 55.94839 -3.37152 114 ft 16 kts 239°
2026-05-06 18:34 55.94789 -3.37301 113 ft 18 kts 239°
2026-05-06 18:34 55.94726 -3.37486 111 ft 17 kts 239°
2026-05-06 18:34 55.94664 -3.37668 115 ft 18 kts 239°
2026-05-06 18:35 55.94588 -3.37894 115 ft 24 kts 239°
2026-05-06 18:35 55.94504 -3.38140 115 ft 25 kts 238°
2026-05-06 18:35 55.94425 -3.38371 114 ft 23 kts 238°
2026-05-06 18:35 55.94351 -3.38591 113 ft 20 kts 239°
2026-05-06 18:36 55.94310 -3.38712 113 ft 9 kts 238°
2026-05-06 18:36 55.94280 -3.38804 114 ft 9 kts 248°
2026-05-06 18:36 55.94313 -3.38892 113 ft 9 kts 327°
2026-05-06 18:36 55.94367 -3.38952 114 ft 9 kts 327°
2026-05-06 18:37 55.94426 -3.38949 112 ft 10 kts 54°
2026-05-06 18:37 55.94438 -3.38907 113 ft 0 kts 57°
2026-05-06 18:38 55.94440 -3.38899 113 ft 5 kts 58°
2026-05-06 18:39 55.94565 -3.38533 112 ft 71 kts 59°
2026-05-06 18:39 55.94938 -3.37435 111 ft 136 kts 58°
2026-05-06 18:39 55.95489 -3.35829 298 ft 171 kts 63°
2026-05-06 18:40 55.96953 -3.32706 1899 ft 174 kts 43°
2026-05-06 18:40 55.97932 -3.31171 2240 ft 203 kts 44°
2026-05-06 18:40 55.99035 -3.29402 2481 ft 226 kts 43°
2026-05-06 18:40 56.00273 -3.27865 2796 ft 241 kts 27°
2026-05-06 18:41 56.01779 -3.26999 3252 ft 250 kts
2026-05-06 18:41 56.03565 -3.27041 3597 ft 266 kts 347°
2026-05-06 18:41 56.05285 -3.28296 4288 ft 270 kts 324°
2026-05-06 18:41 56.06591 -3.30531 5169 ft 267 kts 303°
2026-05-06 18:42 56.07360 -3.33501 6086 ft 262 kts 283°
2026-05-06 18:42 56.07752 -3.36645 6930 ft 262 kts 281°
2026-05-06 18:42 56.08131 -3.39843 7612 ft 268 kts 281°
2026-05-06 18:42 56.08539 -3.43079 8394 ft 270 kts 282°
2026-05-06 18:43 56.08972 -3.46367 9199 ft 272 kts 282°
2026-05-06 18:43 56.09408 -3.49608 9943 ft 276 kts 282°
2026-05-06 18:43 56.09866 -3.52994 10454 ft 288 kts 283°
2026-05-06 18:43 56.10630 -3.56463 10622 ft 312 kts 297°
2026-05-06 18:44 56.11722 -3.59970 10831 ft 332 kts 297°
2026-05-06 18:44 56.12765 -3.62968 11230 ft 342 kts 307°
2026-05-06 18:44 56.14616 -3.65688 11922 ft 349 kts 328°
2026-05-06 18:44 56.16877 -3.67304 12673 ft 356 kts 345°
2026-05-06 18:45 56.19378 -3.67340 13329 ft 367 kts
2026-05-06 18:45 56.21812 -3.65851 14030 ft 375 kts 26°
2026-05-06 18:45 56.24006 -3.63248 14717 ft 380 kts 34°
2026-05-06 18:45 56.25415 -3.61358 15159 ft 384 kts 35°
2026-05-06 18:46 56.28290 -3.57473 16068 ft 388 kts 34°
2026-05-06 18:46 56.30478 -3.54584 16759 ft 392 kts 33°
2026-05-06 18:46 56.32711 -3.51727 17429 ft 396 kts 33°
2026-05-06 18:46 56.34981 -3.48845 18067 ft 401 kts 32°
2026-05-06 18:47 56.37269 -3.45931 18654 ft 405 kts 32°
2026-05-06 18:47 56.39541 -3.42992 19225 ft 408 kts 33°
2026-05-06 18:47 56.41854 -3.39976 19816 ft 411 kts 32°
2026-05-06 18:47 56.44173 -3.36945 20401 ft 414 kts 32°
2026-05-06 18:48 56.46538 -3.33930 20972 ft 416 kts 31°
2026-05-06 18:48 56.48942 -3.30966 21521 ft 420 kts 30°
2026-05-06 18:48 56.51372 -3.27996 22029 ft 424 kts 30°
2026-05-06 18:48 56.53829 -3.24986 22566 ft 427 kts 30°
2026-05-06 18:49 56.56300 -3.21939 23035 ft 432 kts 30°
2026-05-06 18:49 56.58792 -3.18850 23569 ft 434 kts 30°
2026-05-06 18:49 56.61291 -3.15738 24038 ft 436 kts 30°
2026-05-06 18:49 56.63797 -3.12612 24512 ft 437 kts 29°
2026-05-06 18:50 56.66312 -3.09470 24950 ft 439 kts 29°
2026-05-06 18:50 56.68828 -3.06299 25383 ft 442 kts 31°
2026-05-06 18:50 56.71199 -3.02661 25795 ft 449 kts 39°
2026-05-06 18:50 56.73415 -2.98615 26215 ft 452 kts 41°
2026-05-06 18:51 56.75573 -2.94528 26603 ft 455 kts 41°
2026-05-06 18:51 56.77761 -2.90339 27004 ft 456 kts 41°
2026-05-06 18:51 56.79951 -2.86154 27475 ft 456 kts 41°
2026-05-06 18:51 56.82156 -2.81966 27840 ft 459 kts 40°
2026-05-06 18:52 56.84396 -2.77740 28047 ft 465 kts 40°
2026-05-06 18:52 56.86653 -2.73496 28412 ft 466 kts 40°
2026-05-06 18:52 56.88915 -2.69244 28861 ft 466 kts 40°
2026-05-06 18:52 56.91182 -2.64982 29215 ft 468 kts 40°
2026-05-06 18:53 56.93457 -2.60700 29527 ft 471 kts 40°
2026-05-06 18:53 56.95746 -2.56385 29884 ft 472 kts 40°
2026-05-06 18:53 56.98025 -2.52077 30346 ft 470 kts 40°
2026-05-06 18:53 57.00278 -2.47804 30856 ft 465 kts 40°
2026-05-06 18:54 57.02516 -2.43552 31367 ft 461 kts 39°
2026-05-06 18:54 57.04736 -2.39327 31782 ft 459 kts 39°
2026-05-06 18:54 57.06952 -2.35107 32158 ft 458 kts 39°
2026-05-06 18:54 57.09158 -2.30901 32599 ft 456 kts 39°
2026-05-06 18:55 57.11365 -2.26691 32881 ft 458 kts 39°
2026-05-06 18:55 57.13574 -2.22468 33153 ft 459 kts 39°
2026-05-06 18:55 57.15778 -2.18239 33559 ft 456 kts 39°
2026-05-06 18:55 57.17966 -2.14028 34013 ft 453 kts 39°
2026-05-06 18:56 57.20141 -2.09835 34320 ft 452 kts 39°
2026-05-06 18:56 57.22314 -2.05644 34487 ft 454 kts 39°
2026-05-06 18:56 57.24506 -2.01413 34638 ft 457 kts 40°
2026-05-06 18:56 57.26596 -1.97371 34799 ft 458 kts 40°
2026-05-06 18:57 57.28792 -1.93116 35013 ft 459 kts 40°
2026-05-06 18:57 57.32471 -1.85967 35041 ft 464 kts 40°
2026-05-06 18:58 57.37631 -1.75886 35062 ft 462 kts 41°
2026-05-06 18:58 57.41348 -1.68602 35057 ft 465 kts 41°
2026-05-06 18:59 57.45774 -1.59908 35058 ft 468 kts 41°
2026-05-06 18:59 57.50252 -1.51073 35052 ft 470 kts 41°
2026-05-06 19:00 57.54734 -1.42195 35052 ft 471 kts 41°
2026-05-06 19:00 57.59215 -1.33294 35050 ft 470 kts 41°
2026-05-06 19:01 57.63679 -1.24374 35050 ft 469 kts 41°
2026-05-06 19:01 57.68126 -1.15460 35058 ft 469 kts 42°
2026-05-06 19:02 57.72564 -1.06531 35057 ft 469 kts 42°
2026-05-06 19:02 57.76908 -0.97761 35050 ft 470 kts 42°
2026-05-06 19:03 57.81348 -0.88763 35064 ft 471 kts 42°
2026-05-06 19:03 57.85763 -0.79778 35053 ft 471 kts 43°
2026-05-06 19:04 57.90208 -0.70697 35063 ft 472 kts 43°
2026-05-06 19:04 57.94656 -0.61575 35062 ft 474 kts 43°
2026-05-06 19:05 57.99113 -0.52397 35064 ft 475 kts 43°
2026-05-06 19:05 58.03562 -0.43199 35062 ft 477 kts 43°
2026-05-06 19:06 58.08032 -0.33922 35060 ft 478 kts 43°
2026-05-06 19:06 58.12498 -0.24614 35060 ft 478 kts 43°
2026-05-06 19:07 58.16963 -0.15271 35060 ft 478 kts 43°
2026-05-06 19:07 58.21421 -0.05904 35080 ft 479 kts 43°
2026-05-06 19:08 58.25729 0.03180 35065 ft 480 kts 43°
2026-05-06 19:08 58.30197 0.12640 35066 ft 481 kts 44°
2026-05-06 19:09 58.34670 0.22153 35066 ft 482 kts 44°
2026-05-06 19:09 58.39144 0.31706 35063 ft 483 kts 44°
2026-05-06 19:10 58.43615 0.41292 35063 ft 484 kts 44°
2026-05-06 19:10 58.48082 0.50910 35099 ft 485 kts 44°
2026-05-06 19:11 58.52560 0.60591 35074 ft 486 kts 44°
2026-05-06 19:11 58.57010 0.70251 35067 ft 487 kts 44°
2026-05-06 19:12 58.61485 0.80009 35068 ft 488 kts 44°
2026-05-06 19:12 58.65962 0.89810 35070 ft 489 kts 44°
2026-05-06 19:13 58.70440 0.99656 35059 ft 489 kts 44°
2026-05-06 19:13 58.74807 1.09297 35064 ft 490 kts 44°
2026-05-06 19:14 58.79275 1.19205 35064 ft 490 kts 45°
2026-05-06 19:14 58.83737 1.29140 35061 ft 490 kts 45°
2026-05-06 19:15 58.88191 1.39102 35059 ft 490 kts 45°
2026-05-06 19:15 58.92639 1.49092 35065 ft 490 kts 45°
2026-05-06 19:16 58.97081 1.59112 35058 ft 490 kts 45°
2026-05-06 19:16 59.01502 1.69125 35069 ft 490 kts 45°
2026-05-06 19:17 59.05962 1.79141 35068 ft 490 kts 43°
2026-05-06 19:17 59.10548 1.88947 35061 ft 490 kts 43°
2026-05-06 19:18 59.15145 1.98731 35052 ft 490 kts 43°
2026-05-06 19:18 59.19464 2.08017 34458 ft 497 kts 43°
2026-05-06 19:18 59.21761 2.12995 33860 ft 496 kts 43°
2026-05-06 19:19 59.24064 2.18006 33136 ft 496 kts 43°
2026-05-06 19:19 59.26372 2.23042 32439 ft 496 kts 43°
2026-05-06 19:19 59.28671 2.28069 31811 ft 494 kts 43°
2026-05-06 19:19 59.30929 2.33027 31653 ft 479 kts 42°
2026-05-06 19:20 59.33098 2.37814 31446 ft 461 kts 42°
2026-05-06 19:20 59.35202 2.42459 30901 ft 453 kts 41°
2026-05-06 19:20 59.37262 2.46997 30216 ft 449 kts 41°
2026-05-06 19:20 59.39330 2.51553 29426 ft 445 kts 41°
2026-05-06 19:21 59.41372 2.56059 28631 ft 440 kts 41°
2026-05-06 19:21 59.43394 2.60533 27850 ft 436 kts 42°
2026-05-06 19:21 59.45395 2.64972 27273 ft 429 kts 42°
2026-05-06 19:21 59.47349 2.69325 26823 ft 419 kts 42°
2026-05-06 19:22 59.49258 2.73582 26394 ft 413 kts 42°
2026-05-06 19:22 59.51161 2.77828 25992 ft 413 kts 42°
2026-05-06 19:22 59.53073 2.82090 25599 ft 419 kts 42°
2026-05-06 19:22 59.55012 2.86418 25195 ft 424 kts 42°
2026-05-06 19:23 59.56970 2.90805 24819 ft 426 kts 42°
2026-05-06 19:23 59.58924 2.95199 24339 ft 426 kts 42°
2026-05-06 19:23 59.60873 2.99597 23916 ft 424 kts 43°
2026-05-06 19:23 59.62728 3.03793 23467 ft 423 kts 43°
2026-05-06 19:24 59.64658 3.08163 23003 ft 421 kts 43°
2026-05-06 19:24 59.66577 3.12518 22561 ft 418 kts 43°
2026-05-06 19:24 59.68467 3.16816 22143 ft 414 kts 43°
2026-05-06 19:24 59.70334 3.21072 22052 ft 403 kts 43°
2026-05-06 19:25 59.72157 3.25236 22050 ft 399 kts 43°
2026-05-06 19:25 59.73992 3.29416 22070 ft 405 kts 43°
2026-05-06 19:25 59.75851 3.33653 22066 ft 409 kts 43°
2026-05-06 19:25 59.77715 3.37919 22054 ft 408 kts 43°
2026-05-06 19:26 59.79560 3.42157 22034 ft 406 kts 43°
2026-05-06 19:26 59.81388 3.46372 21840 ft 400 kts 43°
2026-05-06 19:26 59.83199 3.50552 21443 ft 398 kts 43°
2026-05-06 19:26 59.85006 3.54723 21018 ft 397 kts 43°
2026-05-06 19:27 59.86803 3.58880 20598 ft 395 kts 43°
2026-05-06 19:27 59.88592 3.63024 20211 ft 393 kts 43°
2026-05-06 19:27 59.90359 3.67128 19848 ft 389 kts 43°
2026-05-06 19:27 59.92117 3.71217 19481 ft 386 kts 43°
2026-05-06 19:28 59.93834 3.75217 19120 ft 383 kts 44°
2026-05-06 19:28 59.95547 3.79219 18670 ft 376 kts 44°
2026-05-06 19:28 59.97240 3.83176 18002 ft 373 kts 44°
2026-05-06 19:28 59.98921 3.87109 17328 ft 370 kts 44°
2026-05-06 19:29 60.00573 3.90981 16725 ft 365 kts 44°
2026-05-06 19:29 60.02211 3.94830 16137 ft 361 kts 44°
2026-05-06 19:29 60.03831 3.98612 15554 ft 356 kts 42°
2026-05-06 19:29 60.05475 4.01893 14975 ft 349 kts 37°
2026-05-06 19:30 60.07276 4.05101 14415 ft 344 kts 35°
2026-05-06 19:30 60.09077 4.08237 13868 ft 340 kts 35°
2026-05-06 19:30 60.10843 4.11338 13274 ft 336 kts 36°
2026-05-06 19:30 60.12577 4.14424 12789 ft 329 kts 38°
2026-05-06 19:31 60.14271 4.17475 12209 ft 325 kts 39°
2026-05-06 19:31 60.15942 4.20508 11657 ft 321 kts 39°
2026-05-06 19:31 60.19181 4.26416 11174 ft 317 kts 39°
2026-05-06 19:32 60.20798 4.29373 10836 ft 320 kts 39°
2026-05-06 19:32 60.22440 4.32383 10531 ft 316 kts 40°
2026-05-06 19:32 60.24055 4.35353 10418 ft 312 kts 40°
2026-05-06 19:32 60.25651 4.38294 10287 ft 311 kts 40°
2026-05-06 19:33 60.27232 4.41214 10148 ft 302 kts 40°
2026-05-06 19:33 60.28739 4.44002 10047 ft 285 kts 40°
2026-05-06 19:33 60.30151 4.46617 10024 ft 267 kts 39°
2026-05-06 19:33 60.31491 4.49096 10039 ft 261 kts 39°
2026-05-06 19:34 60.32833 4.51578 10045 ft 262 kts 39°
2026-05-06 19:34 60.34172 4.54061 10043 ft 260 kts 39°
2026-05-06 19:34 60.35500 4.56527 10045 ft 258 kts 39°
2026-05-06 19:34 60.36720 4.59173 10034 ft 260 kts 55°
2026-05-06 19:35 60.37598 4.62353 10056 ft 259 kts 59°
2026-05-06 19:35 60.38468 4.65534 10064 ft 259 kts 59°
2026-05-06 19:35 60.39395 4.68650 10041 ft 258 kts 47°
2026-05-06 19:35 60.40819 4.70649 10054 ft 248 kts 13°
2026-05-06 19:36 60.42501 4.70917 10061 ft 241 kts 348°
2026-05-06 19:36 60.44116 4.70053 10054 ft 241 kts 337°
2026-05-06 19:36 60.45696 4.68883 10051 ft 243 kts 338°
2026-05-06 19:36 60.47385 4.68425 10054 ft 249 kts 359°
2026-05-06 19:37 60.49121 4.68552 10048 ft 251 kts 358°
2026-05-06 19:37 60.50870 4.68609 10048 ft 252 kts 358°
2026-05-06 19:37 60.52605 4.69184 10036 ft 256 kts 17°
2026-05-06 19:37 60.53704 4.70065 10056 ft 256 kts 18°
2026-05-06 19:38 60.55928 4.71811 10042 ft 256 kts 17°
2026-05-06 19:38 60.57540 4.73364 10026 ft 259 kts 34°
2026-05-06 19:38 60.58902 4.75748 10057 ft 258 kts 39°
2026-05-06 19:38 60.60253 4.78152 10044 ft 258 kts 38°
2026-05-06 19:39 60.61628 4.80480 10036 ft 256 kts 31°
2026-05-06 19:39 60.63143 4.82347 10048 ft 254 kts 27°
2026-05-06 19:39 60.64641 4.84137 10036 ft 254 kts 27°
2026-05-06 19:39 60.66158 4.85955 10039 ft 253 kts 27°
2026-05-06 19:40 60.67681 4.87771 10038 ft 253 kts 27°
2026-05-06 19:40 60.69194 4.89565 9953 ft 253 kts 27°
2026-05-06 19:40 60.70710 4.91358 9709 ft 252 kts 27°
2026-05-06 19:40 60.72223 4.93146 9368 ft 253 kts 27°
2026-05-06 19:41 60.73623 4.95335 9069 ft 257 kts 50°
2026-05-06 19:41 60.74362 4.98619 8792 ft 258 kts 81°
2026-05-06 19:41 60.74242 5.02063 8535 ft 255 kts 111°
2026-05-06 19:41 60.73311 5.05021 8245 ft 250 kts 140°
2026-05-06 19:42 60.72248 5.06775 8051 ft 247 kts 146°
2026-05-06 19:42 60.70860 5.08840 7791 ft 247 kts 147°
2026-05-06 19:42 60.69474 5.10870 7534 ft 242 kts 147°
2026-05-06 19:42 60.68144 5.12813 7431 ft 229 kts 147°
2026-05-06 19:43 60.66866 5.14684 7107 ft 223 kts 147°
2026-05-06 19:43 60.65623 5.16507 6802 ft 217 kts 147°
2026-05-06 19:43 60.64411 5.18273 6511 ft 210 kts 149°
2026-05-06 19:43 60.63103 5.19259 6203 ft 196 kts 184°
2026-05-06 19:44 60.61856 5.18528 5877 ft 184 kts 213°
2026-05-06 19:44 60.60747 5.17221 5470 ft 184 kts 212°
2026-05-06 19:44 60.59635 5.15934 5076 ft 185 kts 212°
2026-05-06 19:44 60.58896 5.15077 4823 ft 184 kts 212°
2026-05-06 19:45 60.57785 5.13782 4428 ft 183 kts 212°
2026-05-06 19:45 60.56618 5.12758 4009 ft 186 kts 188°
2026-05-06 19:45 60.55336 5.13152 3620 ft 187 kts 169°
2026-05-06 19:45 60.54063 5.13588 3226 ft 185 kts 174°
2026-05-06 19:46 60.52790 5.13964 3020 ft 186 kts 173°
2026-05-06 19:46 60.51499 5.14374 3005 ft 189 kts 172°
2026-05-06 19:46 60.50214 5.14798 3005 ft 188 kts 172°
2026-05-06 19:46 60.48930 5.15227 2996 ft 185 kts 172°
2026-05-06 19:47 60.47683 5.15648 2980 ft 177 kts 172°
2026-05-06 19:47 60.46508 5.16044 2995 ft 167 kts 172°
2026-05-06 19:47 60.45378 5.16422 3004 ft 165 kts 172°
2026-05-06 19:47 60.44248 5.16801 2987 ft 165 kts 172°
2026-05-06 19:48 60.43109 5.17184 2833 ft 166 kts 172°
2026-05-06 19:48 60.41968 5.17567 2601 ft 166 kts 172°
2026-05-06 19:48 60.40851 5.17944 2372 ft 162 kts 172°
2026-05-06 19:48 60.39740 5.18314 2154 ft 162 kts 172°
2026-05-06 19:49 60.38627 5.18691 1924 ft 162 kts 172°
2026-05-06 19:49 60.37521 5.19063 1705 ft 161 kts 172°
2026-05-06 19:49 60.36422 5.19432 1455 ft 158 kts 171°
2026-05-06 19:49 60.35356 5.19791 1213 ft 156 kts 172°
2026-05-06 19:50 60.34302 5.20152 989 ft 154 kts 171°
2026-05-06 19:50 60.33251 5.20519 765 ft 155 kts 172°
2026-05-06 19:50 60.32190 5.20862 570 ft 155 kts 171°
2026-05-06 19:50 60.31144 5.21217 368 ft 153 kts 172°
2026-05-06 19:51 60.30184 5.21536 173 ft 151 kts 172°
2026-05-06 19:51 60.29388 5.21801 153 ft 105 kts 171°
2026-05-06 19:51 60.28881 5.21971 161 ft 43 kts 171°
2026-05-06 19:51 60.28669 5.22074 161 ft 27 kts 130°
2026-05-06 19:52 60.28670 5.22251 162 ft 6 kts 79°
2026-05-06 19:52 60.28671 5.22262 162 ft 0 kts 81°
2026-05-06 19:53 60.28672 5.22269 163 ft 2 kts 81°
2026-05-06 19:53 60.28673 5.22287 163 ft 1 kts 81°
2026-05-06 19:53 60.28677 5.22327 163 ft 5 kts 81°
2026-05-06 19:53 60.28683 5.22406 164 ft 6 kts 81°
2026-05-06 19:54 60.28707 5.22463 164 ft 6 kts 17°
2026-05-06 19:54 60.28749 5.22459 165 ft 7 kts 352°
2026-05-06 19:54 60.28794 5.22445 165 ft 7 kts 350°
2026-05-06 19:54 60.28810 5.22444 166 ft 3 kts
2026-05-06 19:55 60.28834 5.22484 168 ft 5 kts 59°
2026-05-06 19:55 60.28850 5.22538 172 ft 2 kts 59°
2026-05-06 19:55 60.28857 5.22560 172 ft 1 kts 59°
2026-05-06 19:55 60.28858 5.22566 172 ft 0 kts 59°